Tracking 19199 objects as of 25-Jun-2018
HD Live streaming from Space Station
objects crossing your sky now

SL-16 DEB

Track SL-16 DEB now!
10-day predictions


NORAD ID: 36031
Int'l Code: 1996-051N
Perigee: 743.3 km
Apogee: 765.9 km
Inclination: 70.9 °
Period: 99.8 minutes
Semi major axis: 7125 km
RCS: 0.0057 m2 (small)
Launch date: September 4, 1996
Source: Commonwealth of Independent States (former USSR) (CIS)
Launch site: TYURATAM MISSILE AND SPACE COMPLEX (TTMTR)

Note: This is SATELLITE DEBRIS
aabbcc
Your satellite tracking list
Your tracking list is empty




NASA's NSSDC Master Catalog

Two Line Element Set (TLE):
1 36031U 96051N   18175.51179144  .00002691  00000-0  81144-3 0  9997
2 36031  70.8518 194.0437 0015871 247.4644 265.3028 14.43346531452950
Source of the keplerian elements: AFSPC